Location: Unspecified
(56.5167°N, 0.0000°E)
Time: 10:48:13
(UTC+02:00)

Resurs 1-4 Rocket - Pass Details

Date: 09 August 2020
Orbit: 799 x 815 km, 98.6° (Epoch: 23 September)

Event Time Altitude Azimuth Distance (km) Brightness Sun altitude
Rises 04:18:36 0° 15° (NNE) 3,340 6.9 -12.6°
Reaches altitude 10° 04:20:57 10° 14° (NNE) 2,402 5.8 -12.4°
Maximum altitude 04:26:14 70° 291° (WNW) 857 2.2 -12.0°
Enters shadow 04:30:29 16° 211° (SSW) 2,001 3.5 -11.7°
